Weather History for Cagliari, Italy

Change the Weather History Date:

Thursday, October 4, 2012

  Actual Average Record
Temperature  
Mean Temperature 66 °F -  
Max Temperature 76 °F 72 °F 82 °F (2001)
Min Temperature 55 °F 56 °F 53 °F (1996)
Growing Degree Days 16 (Base 50)    
Moisture  
Dew Point 58 °F    
Average Humidity 70    
Maximum Humidity 88    
Minimum Humidity 46    
Precipitation  
Precipitation 0.00 in 0.07 in - ()
Sea Level Pressure  
Sea Level Pressure 30.07 in    
Wind  
Wind Speed 6 mph ()    
Max Wind Speed 14 mph    
Max Gust Speed -    
Visibility 6.9 miles    
Events      
Averages and records for this station are not official NWS values.
T = Trace of Precipitation, MM = Missing Value Source: Averaged Metar Reports

Daily Weather History Graph

Daily Weather History Graph

Search for Another Location

Airport:

Trip Planner

Search our weather history database for the weather conditions in past years. The results will help you decide how hot, cold, wet, or windy it might be!

Date:

Astronomy

Oct. 04, 2012 Rise Set
Actual Time 7:22 AM CEST 7:01 PM CEST
Civil Twilight 6:56 AM CEST 7:27 PM CEST
Nautical Twilight 6:25 AM CEST 7:58 PM CEST
Astronomical Twilight 5:53 AM CEST 8:30 PM CEST
Moon 9:26 PM CEST (10/4) 11:23 AM CEST (10/4)
Length of Visible Light 12h 31m
Length of Day
11h 38m
Waning Gibbous, 84% of the Moon is Illuminated
Oct 4
Waning Gibbous
Oct 8
Last Quarter
Oct 15
New
Oct 22
First Quarter
Oct 29
Full

Hourly Weather History & Observations

Time (CEST) Temp. Dew Point Humidity Pressure Visibility Wind Dir Wind Speed Gust Speed Precip Events Conditions
12:15 AM 66.2 °F 57.2 °F 73% 30.12 in - NW 5.8 mph - N/A   Clear
12:45 AM 64.4 °F 55.4 °F 73% 30.12 in - WNW 6.9 mph - N/A   Clear
12:55 AM 64.4 °F 55.4 °F 73% 30.12 in - WNW 6.9 mph - N/A   Clear
1:15 AM 64.4 °F 55.4 °F 73% 30.12 in - WNW 6.9 mph - N/A   Clear
1:45 AM 62.6 °F 55.4 °F 77% 30.12 in - West 6.9 mph - N/A   Clear
1:55 AM 62.6 °F 55.4 °F 77% 30.12 in - West 6.9 mph - N/A   Clear
2:00 AM 63 °F 56 °F 70% 30.14 in 9 mi West 6.9 mph - -  
2:15 AM 62.6 °F 55.4 °F 77% 30.12 in - WNW 6.9 mph - N/A   Clear
2:45 AM 62.6 °F 55.4 °F 77% 30.09 in - WNW 6.9 mph - N/A   Clear
2:55 AM 62.6 °F 55.4 °F 77% 30.09 in - WNW 6.9 mph - N/A   Clear
3:15 AM 62.6 °F 55.4 °F 77% 30.09 in - WNW 6.9 mph - N/A   Clear
3:45 AM 60.8 °F 53.6 °F 77% 30.09 in - NW 5.8 mph - N/A   Clear
3:55 AM 60.8 °F 53.6 °F 77% 30.09 in - NW 5.8 mph - N/A   Clear
4:15 AM 60.8 °F 51.8 °F 72% 30.09 in - WNW 5.8 mph - N/A   Clear
4:45 AM 59.0 °F 51.8 °F 77% 30.09 in - NNW 4.6 mph - N/A   Clear
4:55 AM 59.0 °F 51.8 °F 77% 30.09 in - NNW 4.6 mph - N/A   Clear
5:00 AM 60 °F 53 °F 70% 30.11 in 9 mi NNW 4.6 mph - -  
5:15 AM 59.0 °F 51.8 °F 77% 30.09 in - NNW 4.6 mph - N/A   Clear
5:45 AM 59.0 °F 51.8 °F 77% 30.06 in - NNW 4.6 mph - N/A   Clear
5:55 AM 59.0 °F 51.8 °F 77% 30.06 in - NNW 4.6 mph - N/A   Clear
6:15 AM 59.0 °F 51.8 °F 77% 30.06 in - NNW 4.6 mph - N/A   Clear
6:45 AM 57.2 °F 50.0 °F 77% 30.06 in - NW 3.5 mph - N/A   Clear
6:55 AM 57.2 °F 50.0 °F 77% 30.06 in - NW 3.5 mph - N/A   Clear
7:15 AM 57.2 °F 50.0 °F 77% 30.06 in - NW 3.5 mph - N/A   Clear
7:45 AM 57.2 °F 48.2 °F 72% 30.06 in 6.2 mi NW 4.6 mph - N/A   Partly Cloudy
7:55 AM 57.2 °F 48.2 °F 72% 30.09 in 6.2 mi NW 4.6 mph - N/A   Partly Cloudy
8:00 AM 57 °F 48 °F 64% 30.09 in 9 mi NW 4.6 mph - -   Scattered Clouds
8:15 AM 59.0 °F 50.0 °F 72% 30.09 in 5.0 mi WNW 4.6 mph - N/A   Partly Cloudy
8:45 AM 59.0 °F 50.0 °F 72% 30.09 in 6.2 mi NNW 5.8 mph - N/A   Partly Cloudy
8:55 AM 59.0 °F 50.0 °F 72% 30.09 in 6.2 mi NNW 5.8 mph - N/A   Partly Cloudy
9:15 AM 62.6 °F 57.2 °F 82% 30.09 in - WNW 4.6 mph - N/A   Clear
9:45 AM 66.2 °F 60.8 °F 83% 30.09 in - NNW 3.5 mph - N/A   Clear
9:55 AM 66.2 °F 60.8 °F 83% 30.09 in - NNW 3.5 mph - N/A   Clear
10:15 AM 68.0 °F 57.2 °F 68% 30.09 in - NW 1.2 mph - N/A   Clear
10:45 AM 71.6 °F 62.6 °F 73% 30.09 in 6.2 mi SSE 2.3 mph - N/A   Partly Cloudy
10:55 AM 71.6 °F 62.6 °F 73% 30.09 in 6.2 mi SSE 2.3 mph - N/A   Partly Cloudy
11:00 AM 71 °F 63 °F 69% 30.11 in 12 mi SSE 2.3 mph - -   Scattered Clouds
11:15 AM 73.4 °F 60.8 °F 65% 30.09 in 6.2 mi South 4.6 mph - N/A   Partly Cloudy
11:45 AM 75.2 °F 62.6 °F 65% 30.09 in 6.2 mi SSE 6.9 mph - N/A   Partly Cloudy
11:55 AM 75.2 °F 62.6 °F 65% 30.09 in 6.2 mi SSE 6.9 mph - N/A   Partly Cloudy
12:15 PM 75.2 °F 60.8 °F 61% 30.09 in 6.2 mi SSE 9.2 mph - N/A   Partly Cloudy
12:45 PM 75.2 °F 60.8 °F 61% 30.06 in 6.2 mi SE 11.5 mph - N/A   Partly Cloudy
12:55 PM 75.2 °F 60.8 °F 61% 30.06 in 6.2 mi SE 11.5 mph - N/A   Partly Cloudy
1:15 PM 77.0 °F 59.0 °F 54% 30.06 in 6.2 mi SE 12.7 mph - N/A   Partly Cloudy
1:45 PM 75.2 °F 59.0 °F 57% 30.06 in 6.2 mi SE 13.8 mph - N/A   Partly Cloudy
1:55 PM 75.2 °F 59.0 °F 57% 30.06 in 6.2 mi SE 13.8 mph - N/A   Partly Cloudy
2:00 PM 76 °F 60 °F 47% 30.08 in 12 mi SE 13.8 mph - -   Scattered Clouds
2:15 PM 75.2 °F 60.8 °F 61% 30.06 in 6.2 mi SE 12.7 mph - N/A   Partly Cloudy
2:45 PM 75.2 °F 62.6 °F 65% 30.04 in 6.2 mi SE 13.8 mph - N/A   Partly Cloudy
2:55 PM 75.2 °F 62.6 °F 65% 30.04 in 6.2 mi SE 13.8 mph - N/A   Partly Cloudy
3:15 PM 75.2 °F 57.2 °F 53% 30.04 in 6.2 mi SSE 12.7 mph - N/A   Partly Cloudy
3:45 PM 75.2 °F 55.4 °F 50% 30.04 in 6.2 mi SSE 12.7 mph - N/A   Partly Cloudy
3:55 PM 75.2 °F 55.4 °F 50% 30.04 in 6.2 mi SSE 12.7 mph - N/A   Partly Cloudy
4:15 PM 75.2 °F 60.8 °F 61% 30.04 in 6.2 mi SE 10.4 mph - N/A   Partly Cloudy
4:45 PM 75.2 °F 57.2 °F 53% 30.04 in 6.2 mi SE 12.7 mph - N/A   Partly Cloudy
4:55 PM 75.2 °F 57.2 °F 53% 30.04 in 6.2 mi SE 12.7 mph - N/A   Partly Cloudy
5:00 PM 74 °F 57 °F 46% 30.05 in 12 mi SE 12.7 mph - -   Scattered Clouds
5:15 PM 73.4 °F 59.0 °F 61% 30.01 in 6.2 mi SE 11.5 mph - N/A   Partly Cloudy
5:45 PM 73.4 °F 59.0 °F 61% 30.01 in - SE 11.5 mph - N/A   Clear
5:55 PM 73.4 °F 59.0 °F 61% 30.01 in - SE 11.5 mph - N/A   Clear
6:15 PM 73.4 °F 60.8 °F 65% 30.04 in - SE 11.5 mph - N/A   Clear
6:45 PM 71.6 °F 59.0 °F 64% 30.04 in - SE 9.2 mph - N/A   Clear
6:55 PM 71.6 °F 59.0 °F 64% 30.04 in - SE 9.2 mph - N/A   Clear
7:15 PM 71.6 °F 59.0 °F 64% 30.04 in - SE 9.2 mph - N/A   Clear
7:45 PM 69.8 °F 59.0 °F 68% 30.04 in - SE 6.9 mph - N/A   Clear
7:55 PM 69.8 °F 59.0 °F 68% 30.04 in - SE 6.9 mph - N/A   Clear
8:00 PM 70 °F 58 °F 58% 30.06 in 12 mi SE 6.9 mph - -  
8:15 PM 69.8 °F 60.8 °F 73% 30.04 in - SE 6.9 mph - N/A   Clear
8:45 PM 69.8 °F 62.6 °F 78% 30.06 in - SE 6.9 mph - N/A   Clear
8:55 PM 69.8 °F 62.6 °F 78% 30.06 in - SE 6.9 mph - N/A   Clear
9:15 PM 69.8 °F 64.4 °F 83% 30.06 in 6.2 mi SE 5.8 mph - N/A   Partly Cloudy
9:45 PM 69.8 °F 64.4 °F 83% 30.06 in 6.2 mi SE 5.8 mph - N/A   Partly Cloudy
9:55 PM 69.8 °F 64.4 °F 83% 30.06 in 6.2 mi SE 5.8 mph - N/A   Partly Cloudy
10:15 PM 69.8 °F 64.4 °F 83% 30.06 in 6.2 mi SE 5.8 mph - N/A   Scattered Clouds
10:45 PM 68.0 °F 64.4 °F 88% 30.06 in 6.2 mi East 5.8 mph - N/A   Partly Cloudy
10:55 PM 68.0 °F 64.4 °F 88% 30.06 in 6.2 mi East 5.8 mph - N/A   Partly Cloudy
11:00 PM 69 °F 64 °F 79% 30.08 in 7 mi East 5.8 mph - -   Scattered Clouds
11:15 PM 68.0 °F 62.6 °F 83% 30.06 in 6.2 mi East 2.3 mph - N/A   Partly Cloudy
11:45 PM 66.2 °F 60.8 °F 83% 30.06 in 6.2 mi NNE 1.2 mph - N/A   Partly Cloudy
11:55 PM 66.2 °F 60.8 °F 83% 30.06 in 6.2 mi NNE 1.2 mph - N/A   Partly Cloudy